Arlington, WA
on Thursday, January 10, 2013

Thursday
Previous Day Next Day
Daily Summary
 ActualAverageRecord
Temperature
Mean Temperature °F °F  
Max Temperature 37°F 42°F 53°F (1999)
Min Temperature 24°F 31°F 17°F (1998)
Degree Days
Heating Degree Days 34    
Moisture
Dew Point 29°F   
Average Humidity 91    
Maximum Humidity 100    
Minimum Humidity 80    
Precipitation
Precipitation 0.01 in in in ()
Wind
Wind Speed 0 mph   
Max Wind Speed 6 mph   
Max Gust Speed mph   
Visibility 6 miles   
Events     
Averages and records for this station are not official NWS values.
Key: T is trace of precipitation, MM is missing value
Source: NWS Daily Summary
Seasonal Weather Averages
Time(PST)TemperatureDew PointHumidity Pressure Visibility Wind DirectionWind SpeedGust SpeedPrecipitationEvents Conditions
12:15 AM 32.0°F 28.4°F 87% 29.97 in 10.0 miles Calm Calm - N/A   Mostly Cloudy
12:35 AM 32.0°F 30.2°F 93% 29.96 in 10.0 miles Calm Calm - N/A   Mostly Cloudy
12:55 AM 28.4°F 28.4°F 100% 29.96 in 8.0 miles Calm Calm - N/A   Clear
1:15 AM 28.4°F 26.6°F 93% 29.97 in 8.0 miles Calm Calm - N/A   Scattered Clouds
1:35 AM 30.2°F 28.4°F 93% 29.98 in 10.0 miles Calm Calm - N/A   Overcast
1:55 AM 30.2°F 30.2°F 100% 29.98 in 10.0 miles Calm Calm - N/A   Overcast
2:15 AM 30.2°F 28.4°F 93% 30.00 in 7.0 miles Calm Calm - N/A   Overcast
2:35 AM 30.2°F 28.4°F 93% 30.00 in 8.0 miles Calm Calm - N/A   Overcast
2:55 AM 32.0°F 30.2°F 93% 30.00 in 9.0 miles Calm Calm - N/A   Overcast
3:15 AM 32.0°F 28.4°F 87% 30.00 in 10.0 miles Calm Calm - N/A   Overcast
3:35 AM 32.0°F 28.4°F 87% 30.00 in 7.0 miles Calm Calm - N/A   Overcast
3:55 AM 32.0°F 30.2°F 93% 30.00 in 7.0 miles Calm Calm - N/A   Overcast
4:35 AM 30.2°F 28.4°F 93% 30.00 in 5.0 miles Calm Calm - N/A   Overcast
4:55 AM 30.2°F 30.2°F 100% 30.00 in 0.8 miles Calm Calm - N/A   Overcast
5:15 AM 32.0°F 30.2°F 93% 30.01 in 0.8 miles Calm Calm - N/A   Overcast
5:55 AM 32.0°F 30.2°F 93% 30.02 in 2.0 miles Calm Calm - N/A   Overcast
6:35 AM 32.0°F 30.2°F 93% 30.03 in 5.0 miles Calm Calm - N/A   Overcast
6:55 AM 32.0°F 30.2°F 93% 30.03 in 7.0 miles Calm Calm - N/A   Overcast
7:15 AM 33.8°F 30.2°F 87% 30.05 in 9.0 miles Calm Calm - N/A   Overcast
7:35 AM 32.0°F 30.2°F 93% 30.05 in 5.0 miles Calm Calm - N/A   Overcast
7:55 AM 33.8°F 30.2°F 87% 30.06 in 5.0 miles Calm Calm - N/A   Overcast
8:15 AM 33.8°F 30.2°F 87% 30.07 in 9.0 miles Calm Calm - N/A   Overcast
8:35 AM 33.8°F 30.2°F 87% 30.08 in 5.0 miles Calm Calm - N/A   Overcast
8:55 AM 33.8°F 30.2°F 87% 30.08 in 5.0 miles Calm Calm - N/A   Overcast
9:15 AM 33.8°F 30.2°F 87% 30.08 in 3.0 miles Calm Calm - 0.01 in   Overcast
9:35 AM 33.8°F 30.2°F 87% 30.08 in 3.0 miles Calm Calm - 0.01 in   Overcast
9:55 AM 32.0°F 30.2°F 93% 30.09 in 4.0 miles Calm Calm - 0.01 in   Overcast
10:15 AM 33.8°F 32.0°F 93% 30.09 in 10.0 miles Calm Calm - N/A   Overcast
10:35 AM 33.8°F 30.2°F 87% 30.09 in 6.0 miles Calm Calm - N/A   Overcast
10:55 AM 33.8°F 32.0°F 93% 30.08 in 10.0 miles Calm Calm - N/A   Overcast
11:15 AM 33.8°F 32.0°F 93% 30.08 in 10.0 miles Calm Calm - N/A   Overcast
11:35 AM 35.6°F 33.8°F 93% 30.07 in 10.0 miles SSE 5.8 mph - N/A   Overcast
11:55 AM 35.6°F 33.8°F 93% 30.06 in 8.0 miles SSE 5.8 mph - N/A   Overcast
12:15 PM 35.6°F 33.8°F 93% 30.06 in 10.0 miles SSE 4.6 mph - N/A   Overcast
12:35 PM 35.6°F 33.8°F 93% 30.05 in 10.0 miles SSE 3.5 mph - N/A   Overcast
12:55 PM 35.6°F 33.8°F 93% 30.06 in 10.0 miles Calm Calm - N/A   Overcast
1:15 PM 35.6°F 33.8°F 93% 30.06 in 10.0 miles Calm Calm - N/A   Overcast
1:35 PM 35.6°F 33.8°F 93% 30.06 in 10.0 miles Calm Calm - N/A   Overcast
1:55 PM 35.6°F 33.8°F 93% 30.06 in 10.0 miles Calm Calm - N/A   Overcast
2:15 PM 35.6°F 33.8°F 93% 30.07 in 10.0 miles Calm Calm - N/A   Overcast
2:35 PM 35.6°F 33.8°F 93% 30.07 in 9.0 miles Calm Calm - N/A   Overcast
2:55 PM 37.4°F 33.8°F 87% 30.07 in 10.0 miles Calm Calm - N/A   Overcast
3:15 PM 37.4°F 33.8°F 87% 30.08 in 10.0 miles Calm Calm - N/A   Overcast
3:35 PM 37.4°F 33.8°F 87% 30.08 in 10.0 miles Calm Calm - N/A   Overcast
3:55 PM 37.4°F 33.8°F 87% 30.08 in 10.0 miles Calm Calm - N/A   Overcast
4:15 PM 35.6°F 32.0°F 87% 30.09 in 10.0 miles Calm Calm - N/A   Overcast
4:35 PM 35.6°F 32.0°F 87% 30.09 in 10.0 miles Calm Calm - N/A   Scattered Clouds
4:55 PM 33.8°F 32.0°F 93% 30.09 in 10.0 miles Calm Calm - N/A   Clear
5:15 PM 33.8°F 30.2°F 87% 30.08 in 10.0 miles Calm Calm - N/A   Clear
5:35 PM 32.0°F 30.2°F 93% 30.08 in 10.0 miles Calm Calm - N/A   Clear
5:55 PM 32.0°F 30.2°F 93% 30.09 in 10.0 miles Calm Calm - N/A   Clear
6:15 PM 30.2°F 26.6°F 86% 30.09 in 7.0 miles Calm Calm - N/A   Clear
6:55 PM 28.4°F 28.4°F 100% 30.09 in 1.0 miles Calm Calm - N/A   Clear
7:15 PM 26.6°F 23.0°F 86% 30.09 in 0.5 miles Calm Calm - N/A   Unknown
7:35 PM 28.4°F 26.6°F 93% 30.09 in 1.8 miles Calm Calm - N/A   Clear
7:55 PM 26.6°F 24.8°F 93% 30.09 in 1.0 miles Calm Calm - N/A   Clear
8:15 PM 26.6°F 24.8°F 93% 30.09 in 3.0 miles Calm Calm - N/A   Clear
8:35 PM 28.4°F 26.6°F 93% 30.10 in 0.5 miles Calm Calm - N/A   Overcast
8:55 PM 24.8°F 21.2°F 86% 30.10 in 0.2 miles Calm Calm - N/A   Overcast
9:15 PM 24.8°F 21.2°F 86% 30.10 in 0.2 miles Calm Calm - N/A   Overcast
9:35 PM 24.8°F 19.4°F 80% 30.10 in 0.2 miles Calm Calm - N/A   Overcast
9:55 PM 24.8°F 21.2°F 86% 30.11 in 0.5 miles Calm Calm - N/A   Overcast
10:15 PM 26.6°F 24.8°F 93% 30.11 in 0.5 miles Calm Calm - N/A   Overcast
10:35 PM 26.6°F 24.8°F 93% 30.12 in 2.0 miles Calm Calm - N/A   Overcast
10:55 PM 26.6°F 24.8°F 93% 30.12 in 0.5 miles Calm Calm - N/A   Overcast
11:15 PM 26.6°F 24.8°F 93% 30.13 in 1.0 miles Calm Calm - N/A   Overcast
11:35 PM 24.8°F 23.0°F 93% 30.13 in 0.5 miles Calm Calm - N/A   Scattered Clouds
11:55 PM 24.8°F 23.0°F 93% 30.13 in 0.5 miles Calm Calm - N/A   Overcast
Moon Phase
Jan. 10 Jan. 11 Jan. 18 Jan. 26 Feb. 03
Sunrise:07:56 AM (PST) Moon Rise:06:41 AM (PST)1/10
Sunset:04:36 PM (PST) Moon Set:03:51 PM (PST)1/10

Copyright © 2014 The Weather Underground, Inc.